Regional Weather Roundup
Issued by NWS Albany, NY

Home | Current Version | Previous Version | Text Only | Print | Product List | Glossary On
Versions: 1 2 3 4 5 6 7 8 9 10 11 12 13 14 15 16 17 18 19 20 21 22 23 24 25 26 27 28 29 30 31 32 33 34 35 36 37 38 39 40 41 42 43 44 45 46 47 48 49 50
598
ASUS41 KALY 250310
RWRALY

NEW YORK STATE HOURLY WEATHER ROUNDUP
NATIONAL WEATHER SERVICE ALBANY NY
1100 PM EDT WED MAY 24 2017

NOTE: "FAIR" INDICATES FEW OR NO CLOUDS BELOW 12,000 FEET WITH NO
SIGNIFICANT WEATHER AND/OR NO OBSTRUCTIONS TO VISIBILITY.

NYZ032-033-038>043-046>054-057>066-NYZ062>081-082-084-250400-
EAST


CITY           SKY/WX    TMP DP  RH WIND       PRES   REMARKS
ALBANY         CLOUDY    66  48  52 SE8       29.80S
GLENS FALLS    NOT AVBL
POUGHKEEPSIE   CLOUDY    59  49  69 E7        29.81S
NEWBURGH       CLEAR     61  52  72 VRB6      29.83S
MONTGOMERY     MOCLDY    60  49  66 SE8       29.82R
WHITE PLAINS   MOCLDY    57  52  83 SE8       29.82S
ISLIP          CLOUDY    57  51  80 E7        29.83R
NEW YORK CITY  CLOUDY    60  51  72 E14       29.81S
CENTRAL PARK   CLOUDY    60  50  69 VRB6      29.85R
$$

NYZ005>009-017-018-044>046-055-056-250400-
CENTRAL


CITY           SKY/WX    TMP DP  RH WIND       PRES   REMARKS
FULTON         CLOUDY    66  51  58 CALM      29.73R
SYRACUSE       CLOUDY    65  50  58 E6        29.73R
ROME           CLOUDY    61  50  67 E5        29.76R
ELMIRA         CLOUDY    65  48  54 SE6       29.71S
BINGHAMTON     MOCLDY    59  46  62 S12       29.77R
MONTICELLO     MOCLDY    55  48  76 SE12      29.83R
$$

NYZ026>034-041>043-087-250400-
NORTH


CITY           SKY/WX    TMP DP  RH WIND       PRES   REMARKS
WATERTOWN      PTCLDY    60  51  72 E3        29.72S
FORT DRUM      NOT AVBL
OGDENSBURG     FAIR      66  54  65 E6        29.74F
MASSENA        CLOUDY    65  55  70 NE5       29.77S
SARANAC LAKE   CLOUDY    52  49  89 CALM      29.81R
PLATTSBURGH    MOCLDY    57  53  86 CALM      29.79R
$$

NYZ001>004-010>016-019>021-085-250400-
WEST


CITY           SKY/WX    TMP DP  RH WIND       PRES   REMARKS
NIAGARA FALLS  CLOUDY    67  51  56 E7        29.61R
BUFFALO        CLOUDY    69  46  43 SE9G20    29.63R
DUNKIRK        CLOUDY    65  52  62 E6        29.60S
JAMESTOWN      CLOUDY    57  48  72 SE12G17   29.63S
WELLSVILLE     CLOUDY    60  48  64 SE12G18   29.70S
ROCHESTER      CLOUDY    69  48  47 SE9       29.67F
PENN YAN       CLOUDY    64  47  53 SE6       29.72R
$$

             KEY
       WCI = WIND CHILL INDEX
       VSB = VISIBILITY
       HX  = HEAT INDEX
$$




USA.gov is the U.S. government's official web portal to all federal, state and local government web resources and services.